Regional Weather Roundup
Issued by NWS Wakefield, VA

Home | Current Version | Previous Version | Graphics & Text | Print | Product List | Glossary On
Versions: 1 2 3 4 5 6 7 8 9 10 11 12 13 14 15 16 17 18 19 20 21 22 23 24 25 26 27 28 29 30 31 32 33 34 35 36 37 38 39 40 41 42 43 44 45 46 47 48 49 50
000
ASUS41 KAKQ 281015
RWRAKQ

REGIONAL WEATHER ROUNDUP
NATIONAL WEATHER SERVICE WAKEFIELD VA
600 AM EDT TUE MAR 28 2017

Note: "fair" indicates few or no clouds below 12,000 feet with no
significant weather and/or obstructions to visibility. * = Denotes
station may not report precipitation (e.g., rain,snow,etc.),
thunder or fog.

VAZ042-051-052>054-056-281100-
NORTHERN VIRGINIA

CITY           SKY/WX    TMP DP  RH WIND       PRES   REMARKS
WASH NATIONAL  CLOUDY    61  58  90 S7        29.84F
DULLES         MOCLDY    56  54  93 CALM      29.84F FOG
FORT BELVOIR   PTCLDY    60  55  85 CALM      29.84F
QUANTICO       CLOUDY    57  55  93 S6        29.85S
FREDERICKSBRG* PTCLDY    62  60  93 S7        29.84F
STAFFORD*      PTCLDY    62  59  89 S3        29.88F
WARRENTON      NOT AVBL
CULPEPER*      PTCLDY    58  57  97 CALM      29.85S
MANASSAS*        N/A    N/A N/A N/A CALM      29.84F
LEESBURG*      MOCLDY    55  55 100 CALM      29.85S
WINCHESTER     CLOUDY    52  52 100 CALM      29.84S FOG
FRONT ROYAL*   CLOUDY    54  54 100 CALM      29.83S
LURAY*         PTSUNNY   54  54 100 NE3       29.84R FOG
$$

VAZ048-049-060>072-079>083-281100-
CENTRAL AND SOUTH CENTRAL VIRGINIA

CITY           SKY/WX    TMP DP  RH WIND       PRES   REMARKS
RICHMOND       PTCLDY    62  55  77 S10       29.88S
CHESTERFIELD*  FAIR      61  43  51 S6        29.90R
PETERSBURG*    PTCLDY    57  53  87 CALM      29.90S
HANOVER        CLOUDY    64  54  69 S8        29.89S
TAPPAHANNOCK*  PTCLDY    64  49  59 S6        29.88S
QUINTON*       FAIR      62  56  82 S3        29.88S
CHARLOTTSVILLE MOCLDY    62  58  86 S9        29.85S
GORDONSVILLE*  CLOUDY    54  54 100 SW3       29.85S
ORANGE*        PTCLDY    59  55  88 S5        29.86S
LOUISA*        MOCLDY    64  61  88 S5        29.86R
BUMPASS*       PTSUNNY   63  58  83 S7        29.86S
FARMVILLE*     TSTM      64  59  86 SW9       29.88R
CREWE*         CLOUDY    61  61 100 SW7       29.89R
FORT PICKETT*  PTSUNNY   62  53  71 SW12G20   29.89S
CHASE CITY*    CLOUDY    60  59  94 SE5       29.89F
CLARKSVILLE*   PTSUNNY   61  61 100 S5        29.89F
SOUTH HILL*    CLOUDY    61  56  82 S12       29.96S
LAWRENCEVILLE* PTSUNNY   61  55  78 SW7       29.90S
EMPORIA*       PTCLDY    57  54  88 SE5       29.93S THUNDER
$$

VAZ088>098-281100-
SOUTHEAST VIRGINIA

CITY           SKY/WX    TMP DP  RH WIND       PRES   REMARKS
NORFOLK        PTCLDY    61  54  77 SW14      29.92S
VIRGINIA BEACH MOCLDY    59  53  80 S8        29.93S
NORFOLK NAVAL  MOCLDY    62  54  74 S10       29.93S
WEST POINT*    CLEAR     61  54  75 S5        29.90S
SALUDA*        FAIR      62  55  79 S8        29.89S
NEWPORT NEWS   CLEAR     61  54  77 SW9       29.91S
LANGLEY AFB    PTCLDY    61  55  81 SW9       29.91S
FORT EUSTIS    PTCLDY    59  53  82 S6        29.89S
WILLIAMSBURG*  CLEAR     61  55  82 CALM      29.92S
HR EXEC AP*    FAIR      59  52  77 S7        29.92R
FRANKLIN*      MOCLDY    58  54  85 S7        29.93S
US460-WAKEFLD  CLEAR     59  55  87 S5        29.91S
$$

VAZ020-022-025-037-045-281100-
WEST CENTRAL AND SOUTHWEST VIRGINIA

CITY           SKY/WX    TMP DP  RH WIND       PRES   REMARKS
STAUNTON*      CLOUDY    56  54  94 CALM      29.87S
WAYNESBORO*    CLOUDY    59  58  97 S7        29.87R
HOT SPRINGS VA RAIN      52  48  87 CALM      29.93R
LYNCHBURG      HVY RAIN  59  57  93 VRB6G18   29.92R FOG
DANVILLE       LGT RAIN  60  60 100 SW6       29.91R
SOUTH BOSTON*  CLOUDY    60  59  95 W7G21     29.93R
MARTINSVILLE   CLOUDY    57  56  97 CALM      29.92S
ROANOKE        LGT RAIN  58  58 100 N3        29.90F
BLACKSBURG     CLOUDY    55  55  97 CALM      29.93S
DUBLIN*        LGT RAIN  55  54  97 CALM      29.91S
MARION*        CLOUDY    55  54  96 CALM      29.93S FOG
HILLSVILLE*    CLOUDY    54  53  98 S7        29.91R
RICHLANDS*     LGT RAIN  54  52  94 W3        29.90R
WISE*          MOCLDY    54  54 100 SW9       29.92R
ABINGDON*      MOCLDY    56  56 100 CALM      29.90R FOG
$$

MDZ021>025-VAZ099-100-281100-
SOUTHERN MARYLAND AND THE DELMARVA PENINSULA

CITY           SKY/WX    TMP DP  RH WIND       PRES   REMARKS
PATUXENT RIVER MOCLDY    52  51  97 E6        29.86S
BAY BRIDGE APT LGT RAIN  57  54  88 S8        29.86R
LEONARDTOWN    CLOUDY    63  54  72 SW7       29.88S
DOVER          CLOUDY    60  60 100 S3        29.86S
GEORGETOWN     MOCLDY    59  53  80 SW7       29.88F
EASTON         MOCLDY    61  54  77 S6        29.90S
CAMBRIDGE      PTCLDY    57  54  88 SE7       29.88R
SALISBURY      CLOUDY    60  55  83 S8        29.89S
OCEAN CITY     PTCLDY    52  49  89 S8        29.91S
WALLOPS ISLAND MOCLDY    52  51  97 S13       29.92S
ACCOMACK*      PTCLDY    56  53  88 S7        29.91S
$$

NCZ012>017-030>032-281100-
NORTH CENTRAL AND EASTERN NORTH CAROLINA

CITY           SKY/WX    TMP DP  RH WIND       PRES   REMARKS
ROANOKE RAPIDS FAIR      61  55  82 S7        29.92S
RALEIGH        CLOUDY    64  55  72 S10       29.92F THUNDER
ELIZABETH CITY PTCLDY    59  55  87 S6        29.96S
AHOSKIE*         N/A     60  56  86 S3        29.93F
EDENTON*       PTCLDY    58  55  91 CALM      29.97R
CURRITUCK*     PTCLDY    60  56  88 S3        29.96S
KILL DEVIL HLS NOT AVBL
MANTEO         PTCLDY    58  56  92 SW7       29.98S
CAPE HATTERAS  PTCLDY    67  58  72 W8        29.99R HAZE
TARBORO*       NOT AVBL
GOLDSBORO      PTCLDY    62  62 100 S5        29.94S
WASHINGTON     CLOUDY    61  56  85 S3        29.97R
GREENVILLE     MOCLDY    63  59  88 SW7       29.97S
NEW BERN       CLOUDY    62  58  86 S7        29.98S
WILMINGTON     CLEAR     61  59  93 CALM      29.98S
$$

VAZ048-281100-
ELSEWHERE

CITY           SKY/WX    TMP DP  RH WIND       PRES   REMARKS
HARRISBURG PA  CLOUDY    51  50  96 VRB3      29.88R FOG
BALTIMORE      LGT RAIN  54  54 100 CALM      29.85S
ANNAPOLIS      CLOUDY    53  51  93 SE6       29.85S
ANDREWS AFB    CLOUDY    64  56  75 SW8       29.83F
PHILADELPHIA   FOG       50  49  96 NE5       29.90S VSB 3/4
HENDERSON NC   CLOUDY    58  54  87 S7        29.91F
GREENSBORO     LGT RAIN  59  59 100 S12       29.91F FOG
ROCKY MOUNT    CLOUDY    61  57  87 S8        29.94S
$$

VAZ100-281100-
MARINE

STATION/POSITION TIME  TEMP    WIND        PRES    WAVE   SWELL
                       AIR SEA DIR/SP/G            HT/PER HT/PER
                 (UTC) (F)     (DEG/KT/KT) (MB)    (FT/S) (FT/S)
CAPE MAY NJ      0948   54 45  150/  8/ 10 1011.5F
LEWES DE         0948   63 45  220/  7/ 10 1011.6F
OCEAN-CITY-INLET 0948   47 49  220/ 10/ 11 1013.1S
WACHAPREAGUE VA  0942   55 57  220/  6/  7 1012.7R
THOMAS POINT MD  1000   56 46  160/ 13/ 13   N/A
GOOSES REEF MD   0950   53     160/ 12/ 14 1011.6F
COVE POINT MD    0942   52     180/ 11/ 12 1011.8R
SOLOMONS ISLAND  0942   55 48  120/  5/  5   N/A
BISHOPS HEAD MD  0948   58 54  180/ 13/ 15 1012.0R
PINEY POINT MD   0948          130/  4/  4   N/A
POTOMAC MD       0950   55     200/  6/  8 1010.8R
CAMBRIDGE MD     0948   58 47  130/  3/  5 1010.8R
LEWISETTA VA     0942   64 53  210/  8/ 10 1011.3R
RAPPAHANNOCK LGT 0948          170/ 15/ 16 1013.2R
STINGRAY PT      0950   53     190/ 10/ 10 1012.5F
YORK RVR RNG VA  0942   59     210/ 11/ 12 1012.0R
YORKTOWN VA      0942   62 51  220/ 13/ 17 1012.0F
JAMESTOWN VA     0950   62     200/ 10/ 14   N/A
DOMINION TERM VA 0942   58     190/  7/  9 1013.1S
KIPTOPEKE VA     0948      50  170/  8/  9   N/A
CHES BAY BRIDGE  0942   61 50  200/ 11/ 14 1013.0F
CAPE HENRY VA    0942   62     200/ 10/ 14   N/A
WILLOUBY STN VA  0942   62     210/ 15/ 17 1013.8F
S CRANEY ISL VA  0942   60     190/  7/  9 1013.0F
CAPE HENRY BUOY  0942      50                N/A     3/ 9   2/17
CAPE CHARLES BUO 0951      48                N/A     3/ 9   2/11
OFFSHORE WE BUOY 0951      51                N/A     4/ 8   2/11
64NM E OF VA BCH 0950   55 49  210/ 10/ 12 1014.5S   4/10   3/10
DUCK PIER NC     0942   61 49  200/ 10/ 12 1014.2S
44100 DUCK FRF   0935      51                N/A     4/10   2/11
44056 DUCK FRF   0930      50                N/A     3/ 9   2/11
OREGON INLET NC  0942   61 58  220/  8/  9 1015.2R
HATTERAS NC      0942   66 61  230/  8/ 12 1015.2R
DIAMOND SHLS NC  0950   71 73  230/ 17/ 21 1015.3R   5/ 8   3/ 8
CAPE LOOKOUT NC  0900   67     220/  6/  8 1015.1S
$$



USA.gov is the U.S. government's official web portal to all federal, state and local government web resources and services.